Location: Nakusp
(50.2330°N, 117.8000°W)
Time: 16:47:47
(UTC-07:00)

Daily predictions for brighter satellites

Satellite Brightness Start Highest point End
(mag) Time Altitude Azimuth Time Altitude Azimuth Time Altitude Azimuth
Cosmos 1452 Rocket 3.6 18:52:32 10° NNW 18:57:50 87° ENE 19:03:06 10° SSE
Cosmos 1805 4.1 18:56:08 10° SSE 18:59:34 29° E 19:03:02 10° NNE
NOAA 12 4.2 18:55:25 10° SSE 19:00:36 61° ENE 19:05:51 10° N
Resurs 1-3 4.4 18:57:55 10° SE 19:01:46 31° ENE 19:05:39 10° N
USA 238 DEB 4.1 18:55:42 10° SW 19:02:45 73° NW 19:09:49 10° NE
USA 238 4.1 18:55:47 10° SW 19:02:50 73° NW 19:09:55 10° NE
Helios 1B rocket 3.7 19:01:01 10° NE 19:04:08 21° E 19:07:15 10° SE
Cosmos 2369 Rocket 2.7 19:00:29 10° NNW 19:05:53 43° NE 19:11:16 10° ESE
ALOS 3.3 19:01:59 10° ESE 19:05:54 27° ENE 19:09:49 10° N
Cosmos 192 4.4 19:02:51 10° S 19:07:45 64° ESE 19:12:41 10° NNE
ISS -1.2 19:07:17 10° SSE 19:08:46 13° SE 19:10:15 10° ESE
Resurs 01 Rocket 2.0 19:05:45 10° SE 19:09:59 45° ENE 19:14:14 10° N
Cosmos 1943 4.4 19:08:56 10° SE 19:12:42 19° E 19:16:27 10° ENE
Cosmos 1953 2.7 19:09:48 10° SSE 19:13:33 42° E 19:17:20 10° NNE
COSMO-SKYMED 1 2.6 19:09:37 10° NNE 19:14:01 87° ESE 19:18:21 10° SSW
ERBS 3.1 19:11:31 10° NW 19:14:52 40° NNE 19:17:57 12° E
Cosmos 482 Debris 3.5 19:13:10 10° W 19:15:09 51° N 19:17:46 11° ENE
Cosmos 1420 Rocket 4.0 19:11:35 10° NNW 19:16:55 75° ENE 19:22:14 10° SSE
Cosmos 1603 4.1 19:14:14 10° S 19:19:38 44° ESE 19:25:04 10° NE
CENTAUR R/B 3.5 19:15:20 10° SSE 19:20:03 23° ESE 19:25:13 10° ENE
Cosmos 1674 3.3 19:16:51 10° N 19:20:29 36° ENE 19:24:06 10° SE
Meteor 1-22 Rocket 4.3 19:16:44 10° SSW 19:22:02 78° WNW 19:27:22 10° N
In-Cosmos 22 4.4 19:18:15 10° NNW 19:24:03 84° W 19:29:49 10° S
Cosmos 1470 3.8 19:22:03 10° SE 19:25:10 23° E 19:28:18 10° NE
Cosmos 1076 Rocket 4.0 19:20:53 10° NNW 19:25:11 65° W 19:29:30 10° S
Cosmos 2058 4.4 19:23:25 10° NNE 19:26:15 18° ENE 19:28:03 14° E
Abrixas 4.2 19:24:20 10° SSW 19:26:33 19° SSE 19:27:53 15° ESE
GP-B 4.4 19:23:44 10° NNE 19:27:06 21° ENE 19:30:26 10° SE
Nadezhda 4 Rocket 4.0 19:23:29 10° N 19:29:46 66° ENE 19:35:57 10° SSE
Cosmos 1766 Rocket 3.9 19:26:47 10° NNW 19:31:09 68° W 19:35:27 10° S
ATLAS CENTAUR R/B 4.1 19:28:02 10° SSW 19:33:50 66° SE 19:53:04 10° NE
NOSS 3-2 (C) 3.5 19:28:17 10° SW 19:34:29 81° SE 19:41:20 10° NE
Cosmos 2151 3.8 19:31:28 10° N 19:35:12 29° ENE 19:38:14 14° SE
Cosmos 1346 3.0 19:32:45 10° NNW 19:35:44 83° W 19:38:43 10° S
Spot 2 Rocket 3.4 19:31:31 10° SSE 19:36:33 82° ENE 19:41:38 10° NNW
Cosmos 2333 Rocket 4.0 19:33:24 10° WSW 19:38:33 32° NW 19:43:42 10° NNE
Cosmos 1092 Rocket 4.0 19:33:41 10° N 19:39:51 58° ENE 19:45:54 10° SSE
Cosmos-2242 3.0 19:35:30 10° S 19:39:51 72° E 19:44:16 10° NNE
HJ-1C 3.3 19:36:31 10° SSE 19:39:53 88° ENE 19:43:17 10° NNW
FREGAT/IRIS 3.3 19:37:24 10° S 19:40:26 57° W 19:43:30 10° NNW
Cosmos 1048 Rocket 4.3 19:35:38 10° S 19:40:37 44° ESE 19:45:34 10° NE
H-2A R/B 4.3 19:40:19 10° ENE 19:41:02 11° NE 19:42:05 10° NE
SJ-6B 3.8 19:37:41 10° S 19:41:38 53° W 19:45:40 10° NNW
ATLAS 5 CENTAUR R/B 1.9 19:39:30 10° SW 19:44:24 86° SE 19:49:47 10° NE
Cosmos 1544 3.1 19:41:47 10° S 19:45:29 64° E 19:49:13 10° NNE
Cosmos 2221 4.1 19:46:32 17° ENE 19:46:32 17° ENE 19:48:42 10° NE
Cosmos 1269 Rocket 4.1 19:41:10 10° S 19:46:18 56° ESE 19:51:29 10° NNE
Envisat 4.3 19:45:50 18° E 19:47:47 22° ENE 19:51:39 10° N
Cosmos 1655 Rocket 4.5 19:44:32 10° N 19:50:20 39° ENE 19:55:08 15° SE
Cosmos 2026 Rocket 4.3 19:44:52 10° N 19:50:39 42° ENE 19:55:57 12° SE
Cosmos 158 Rocket 4.4 19:47:42 10° SSE 19:52:01 33° ESE 19:56:22 10° NE
Cosmos 2237 Rocket 4.1 19:48:50 10° WSW 19:53:46 29° NW 19:58:42 10° NNE
CZ-4B DEB 2.7 19:55:34 15° SSE 19:58:08 68° ENE 20:01:24 10° N
Cosmos 1758 3.8 19:54:12 10° SSW 19:58:16 65° WNW 20:02:22 10° N
FengYun 1-2 T 4.2 19:53:22 10° SSE 19:58:53 85° WSW 20:04:25 10° NNW
Cosmos 1634 Rocket 4.2 19:55:29 10° SSE 20:01:24 48° E 20:07:18 10° NNE
USA 215 3.8 19:56:44 14° ENE 20:01:46 36° SE 20:07:42 10° SSW
Cosmos 1500 Rocket 3.6 19:58:43 10° N 20:03:11 86° W 20:07:38 10° S
Meteor 1-11 4.5 19:57:41 10° N 20:03:22 51° ENE 20:07:35 18° SE
Exosat Rocket 4.5 19:59:06 10° NNW 20:05:30 73° ENE 20:14:34 11° SSE
Cosmos 724 4.3 20:01:04 10° SW 20:07:04 89° NW 20:13:16 10° NE
Cosmos 1842 Rocket 3.4 20:04:42 10° S 20:09:01 71° E 20:13:23 10° NNE
Cosmos 2195 Rocket 4.5 20:06:45 10° N 20:13:04 67° ENE 20:19:23 10° SSE
Meteor 1-29 2.9 20:11:08 10° NNE 20:14:40 89° WNW 20:18:10 10° SSW
Helios 1A 4.0 20:11:43 10° S 20:15:48 47° W 20:19:55 10° NNW
Cosmos 1328 3.6 20:11:59 10° N 20:15:58 74° ENE 20:18:10 25° SSE
SL-16 R/B 3.7 20:10:46 10° WSW 20:16:03 38° NW 20:21:23 10° NNE
Cosmos 1666 Rocket 4.4 20:12:20 10° N 20:16:20 32° ENE 20:16:33 31° ENE
ERS-1 Rocket 3.5 20:15:51 31° ESE 20:17:23 40° ENE 20:22:04 10° N
SL-14 R/B 3.5 20:15:30 10° N 20:19:27 51° ENE 20:20:16 43° ESE
CZ-2D R/B 3.3 20:17:14 17° S 20:20:11 82° WSW 20:24:06 10° NNW
CZ-4B DEB 4.4 20:19:34 33° SSE 20:21:04 83° ENE 20:24:41 10° NNW
ATLAS 3B R/B 4.3 20:14:47 10° WNW 20:21:21 32° NNW 20:27:38 10° NE
FENGYUN 3A 3.8 20:16:00 10° S 20:21:22 76° WSW 20:26:49 10° NNW
Cosmos 1110 Rocket 4.0 20:22:04 10° NNW 20:27:24 88° WSW 20:30:36 25° SSE
USA 186 2.9 20:30:37 27° NNW 20:30:37 27° NNW 20:31:58 10° NNW
H-2A R/B 3.1 20:27:37 18° S 20:30:22 65° WSW 20:34:13 10° NNW
Cosmos 1939 Rocket 3.5 20:32:05 39° NE 20:32:05 39° NE 20:35:24 10° N
ASTEX 1 3.5 20:29:16 10° N 20:34:12 75° W 20:39:04 10° SSW
CZ-4C R/B 4.0 20:30:19 10° W 20:35:28 31° NNW 20:41:17 10° NE
Helios 1B rocket 3.5 20:35:45 10° N 20:39:42 45° WNW 20:43:37 10° SW
Cosmos 1943 Rocket 2.1 20:36:23 10° NNW 20:42:03 90° WSW 20:44:16 39° SSE
ALOS 3.3 20:38:42 10° S 20:43:09 44° W 20:47:39 10° NNW
ISS -1.7 20:41:30 10° SW 20:43:11 27° SW 20:43:11 27° SW
Resurs 01 Rocket 3.9 20:43:03 10° SSW 20:46:39 24° W 20:50:16 10° NW
Sich 1 3.3 20:43:43 10° N 20:47:34 52° NE 20:47:34 52° NE
Cosmos 2369 Rocket 3.4 20:44:39 10° NW 20:49:54 40° WSW 20:54:43 12° S
SPOT 5 3.7 20:51:18 30° NE 20:51:18 30° NE 20:54:13 10° N
SL-8 R/B 3.8 20:45:43 10° WSW 20:50:17 56° SSE 20:50:17 56° SSE
Cosmos 2251 Rocket 3.4 20:45:15 10° S 20:50:24 62° ESE 20:55:36 10° NNE
ERBS 3.3 20:48:21 10° WNW 20:51:22 45° WSW 20:51:22 45° WSW
Aureole 3 4.1 20:45:49 10° N 20:52:08 66° ENE 20:53:04 56° SE
Cosmos 1733 4.3 20:49:29 10° SSW 20:53:12 46° WNW 20:56:57 10° N
Cosmos 1943 3.2 20:50:24 10° SSW 20:56:02 83° WNW 21:01:43 10° NNE
Lacrosse 4 Rocket 4.2 20:56:58 10° NNE 20:57:05 10° NNE 20:57:13 10° NNE
Cosmos 1331 Rocket 4.5 20:53:12 10° NNW 20:58:26 58° WSW 21:00:44 32° S
Gbstr 26 Del rocket 3.6 20:57:32 10° SW 21:01:40 55° S 21:01:40 55° S
Cosmos 2058 3.5 20:59:31 10° NNW 21:03:33 53° W 21:04:18 45° SW
Cosmos 1703 4.2 21:00:43 10° N 21:03:23 41° N 21:03:23 41° N
GP-B 4.0 21:00:25 10° N 21:04:43 48° W 21:07:55 17° SSW
Cosmos 2180 Rocket 4.3 21:04:20 47° SSE 21:06:07 70° E 21:12:15 10° NNE
CENTAUR R/B 2.5 21:03:32 10° SW 21:09:48 86° NW 21:16:59 10° NE
Cosmos 1302 Rocket 4.1 21:07:03 10° NNW 21:12:15 72° WSW 21:12:56 63° SSW
Cosmos 1805 Rocket 4.1 21:10:42 10° NNW 21:15:02 54° W 21:15:27 52° WSW
H-2A R/B 3.0 21:17:27 42° N 21:17:27 42° N 21:20:38 10° N
Cosmos 2279 Rocket 4.0 21:16:56 20° SSW 21:21:26 79° W 21:27:41 10° N
Cosmos 2221 3.2 21:23:21 54° WNW 21:23:21 54° WNW 21:27:18 10° N
Envisat 3.2 21:26:02 64° SW 21:26:22 66° WSW 21:31:27 10° NNW
Cosmos 1633 Rocket 3.8 21:22:25 10° NNW 21:25:49 50° NW 21:25:49 50° NW
Cosmos 1626 4.3 21:24:14 10° N 21:25:43 22° N 21:25:43 22° N
ATLAS 5 CENTAUR R/B 3.7 21:25:16 10° W 21:29:45 30° NNW 21:34:07 12° NE
Cosmos 2266 Rocket 3.8 21:27:50 10° N 21:34:14 85° E 21:34:22 84° ESE
MetOp-A 4.3 21:37:13 69° N 21:37:13 69° N 21:41:54 10° NNW
Terra 3.9 21:41:35 18° NNE 21:41:35 18° NNE 21:43:13 10° N
Cosmos 1697 Rocket 4.3 21:37:05 10° NNW 21:40:53 23° NNE 21:40:53 23° NNE
Cosmos 1656 Rocket 3.9 21:38:34 10° NW 21:43:30 61° W 21:43:30 61° W
USA 215 3.1 21:44:08 65° NE 21:45:14 87° NNW 21:51:48 10° WSW
H-2A R/B 3.5 21:51:18 28° NNE 21:51:18 28° NNE 21:53:59 10° N
ARGOS 3.8 21:51:34 49° N 21:51:34 49° N 21:55:33 10° NNW
ERS-1 Rocket 4.3 21:55:51 32° WSW 21:56:15 33° W 22:00:48 10° NNW
ATLAS 3B R/B 4.2 22:08:00 10° NW 22:14:13 29° N 22:16:17 25° NE
Cosmos 1980 Rocket 3.9 22:16:14 10° NNW 22:19:27 24° NNE 22:19:27 24° NNE
Cosmos 1943 Rocket 4.4 22:21:36 10° WNW 22:25:00 17° W 22:25:49 16° WSW
CZ-4C R/B 4.2 22:20:43 10° NW 22:25:59 26° N 22:27:58 23° NE
Lacrosse 4 Rocket 4.3 22:33:32 10° NNW 22:34:27 15° N 22:34:27 15° N
SL-16 R/B 4.3 22:50:24 10° NNW 22:53:04 19° NNE 22:53:04 19° NNE
CENTAUR R/B 4.0 22:55:23 10° W 23:01:26 36° NNW 23:08:13 10° NE
ATLAS 5 CENTAUR R/B 4.3 23:12:03 10° NW 23:15:39 21° N 23:15:39 21° N
Cosmos 2322 Rocket 4.3 23:12:10 10° NNW 23:14:33 21° N 23:14:33 21° N
